Regional Weather Roundup
Issued by NWS Charleston, SC

Current Version | Previous Version | Graphics & Text | Print | Product List | Glossary On
Versions: 1 2 3 4 5 6 7 8 9 10 11 12 13 14 15 16 17 18 19 20 21 22 23 24 25 26 27 28 29 30 31 32 33 34 35 36 37 38 39 40 41 42 43 44 45 46 47 48 49 50
736 ASUS42 KCHS 041828 RWRCHS REGIONAL WEATHER ROUNDUP NATIONAL WEATHER SERVICE CHARLESTON SC 200 PM EDT WED MAY 04 2016 NOTE: "FAIR" INDICATES FEW OR NO CLOUDS BELOW 12,000 FEET WITH NO SIGNIFICANT WEATHER AND/OR OBSTRUCTIONS TO VISIBILITY. NOT ALL STATIONS ARE QUALITY CONTROLLED. USE DATA WITH CAUTION... ESPECIALLY DEWPOINT OBSERVATIONS. SCZ027-030-031-034>040-042>050-041900- ...SOUTHEAST SOUTH CAROLINA... CITY SKY/WX TMP DP RH WIND PRES REMARKS N CHARLESTON MOSUNNY 79 52 38 SW10G20 29.66F 6HR MIN TEMP: 68; 6HR MAX TEMP: 80; WATERFRONT PRK N/A 76 56 49 W7 29.65F MOUNT PLEASANT FAIR 79 54 41 SW14 29.66S JOHNS ISLAND FAIR 81 57 44 SW12 29.66F PINOPOLIS N/A 79 54 41 W7 29.60F MONCKS CORNER FAIR 77 45 31 SW5 29.65F SUMMERVILLE FAIR 79 50 36 W8G20 29.66F BEAUFORT MCAS MOSUNNY 78 52 40 W14G22 29.69F 6HR MIN TEMP: 68; 6HR MAX TEMP: 79; BEAUFORT ARPT FAIR 79 52 38 W10G20 29.69S HILTON HEAD IS MOSUNNY 82 55 39 W8G16 29.71F WALTERBORO CLEAR 79 45 29 W10G21 29.67F ALLENDALE FAIR 77 45 31 W10G17 29.69F ...SOUTHERN MIDLANDS AND PEE DEE... CITY SKY/WX TMP DP RH WIND PRES REMARKS GEORGETOWN FAIR 79 54 41 W14G20 29.64F KINGSTREE FAIR 77 50 38 W12G17 29.65F ORANGEBURG MOSUNNY 77 46 33 W16 29.68F 6HR MIN TEMP: 66; 6HR MAX TEMP: 77; BARNWELL FAIR 79 46 31 NW8G21 29.70F AIKEN FAIR 72 43 35 SW10G18 29.74F MANNING FAIR 75 46 35 W9 29.65F COLUMBIA MOSUNNY 75 48 38 VRB5 29.67F 6HR MIN TEMP: 67; 6HR MAX TEMP: 77; SUMTER CLOUDY 74 51 45 VRB6 29.64F 6HR MIN TEMP: 65; 6HR MAX TEMP: 76; FLORENCE MOSUNNY 77 53 43 MISG 29.65F 6HR MIN TEMP: 68; 6HR MAX TEMP: 77; MYRTLE BEACH MOSUNNY 81 55 41 W10 29.65F N MYRTLE BEACH MOSUNNY 80 59 48 SW10G22 29.62F 6HR MIN TEMP: 68; 6HR MAX TEMP: 80; 6HR PCP: TRACE; $$ GAZ063-065-086>088-099>101-113>116-118-119-134>141-150-041900- ...SOUTHEAST GEORGIA... CITY SKY/WX TMP DP RH WIND PRES REMARKS SAVANNAH ARPT MOSUNNY 79 50 36 W18G24 29.71F 6HR MIN TEMP: 69; 6HR MAX TEMP: 79; HUNTER AAF SUNNY 80 57 45 W15 29.68F 6HR MIN TEMP: 68; 6HR MAX TEMP: 80; FORT STEWART MOSUNNY 77 51 39 W8 29.70S 6HR MIN TEMP: 68; 6HR MAX TEMP: 78; STATESBORO SUNNY 79 51 37 NW14G20 29.70F SYLVANIA CLEAR 77 49 36 NW14G20 29.71F CLAXTON FAIR 77 51 41 SW8G21 29.71F ...CSRA...CENTRAL AND FAR SOUTHEAST GEORGIA... CITY SKY/WX TMP DP RH WIND PRES REMARKS THOMSON MOSUNNY 73 46 38 W10G17 29.78F AUGUSTA-BUSH SUNNY 75 41 29 W15G23 29.72F 6HR MIN TEMP: 63; 6HR MAX TEMP: 75; AUGUSTA-DANIEL SUNNY 74 40 29 VRB7G17 29.73F SWAINSBORO FAIR 73 45 35 NW12G18 29.73F VIDALIA SUNNY 73 46 38 NW8G21 29.73F EASTMAN FAIR 74 47 37 W6 29.77F HAZLEHURST FAIR 77 46 33 NW8 29.73F ALMA SUNNY 76 51 41 NW14G20 29.74F 6HR MIN TEMP: 66; 6HR MAX TEMP: 77; WAYCROSS MOSUNNY 78 55 45 NW12 29.72F JESUP FAIR 81 55 41 W12 29.72F BAXLEY FAIR 77 50 38 NW13 29.72F BRUNSWICK MOSUNNY 84 57 39 SW14 29.71F SAINT SIMONS PTSUNNY 78 59 51 W6 29.71F 6HR MIN TEMP: 71; 6HR MAX TEMP: 79; $$ SCZ027-028-034-036>038-045-046-048>050-GAZ119-141-041900- ...LAKE AND SUPPLEMENTAL COASTAL OBSERVATIONS... STATION/POSITION TIME TEMP WIND PRES WAVE SWELL AIR SEA DIR/SP/G HT/PER HT/PER/DIR (UTC) (F) (DEG/KT/KT) (MB) (FT/S) (FT/S/D) WINYAH BAY 1745 78 270/ 9 1003.0F LAKE MURRAY 1700 69 260/ 9/ 11 1005.4F ACE BASIN NERRS 1700 76 250/ 5 1006.0F FORT PULASKI 1800 77 76 210/ 6/ 8 1006.0F SAPELO ISLAND 1800 78 280/ 8 1006.0F $$ ANZ835-935-AMZ111-154-330-350-352-354-370-450-454-472-041900- ...C-MAN AND BUOY OBSERVATIONS... STATION/POSITION TIME TEMP WIND PRES WAVE SWELL AIR SEA DIR/SP/G HT/PER HT/PER/DIR (UTC) (F) (DEG/KT/KT) (MB) (FT/S) (FT/S/D) BUOY 41004 1750 73 74 260/ 12/ 14 1004.9F 3/ 7 2/ 7 BUOY 41008 NOT AVBL FOLLY BEACH CMAN 1800 77 250/ 11/ 21 1004.8F CAPERS NEARSHORE 1708 73 72 250/ 10/ 14 1005.2F FRIPP NEARSHORE 1808 74 72 260/ 12/ 16 1005.1F STATION/POSITION TIME TEMP WIND PRES WAVE SWELL AIR SEA DIR/SP/G HT/PER HT/PER/DIR (UTC) (F) (DEG/KT/KT) (MB) (FT/S) (FT/S/D) 5E ST. MARYS GA 1721 73 N/A 2/ 7 FRYING PAN BUOY 1800 72 73 240/ 16/ 17 1003.1F BUOY 41025 1750 69 71 250/ 12/ 12 1003.7F 4/ 6 3/180/ 6 CAPE LOOKOUT NC 1800 69 170/ 6/ 8 1002.6F BUOY 41002 1750 72 74 140/ 10/ 12 1007.3F 5/ 7 5/240/ 7 BUOY 41010 1720 78 78 290/ 14/ 16 1007.6F ST AUGUSTINE FL 1800 69 71 220/ 12/ 15 1007.9F $$

USA.gov is the U.S. government's official web portal to all federal, state and local government web resources and services.